039  
ASUS44 KMAF 182110  
RWRMAF  
MIDLAND AREA WEATHER ROUNDUP  
NATIONAL WEATHER SERVICE MIDLAND TX  
400 PM CDT THU JUL 18 2019  
   
..IN SOUTHWEST TEXAS AND SOUTHEAST NEW MEXICO
 
 
 
CITY SKY/WX TMP DP RH WIND PRES REMARKS
 
ALPINE FAIR 92 52 25 S14 30.11F  
ANDREWS FAIR 98 57 25 S12G22 29.94F  
ARTESIA FAIR 102 55 21 SE14 29.91 HX 101  
BIG SPRING NOT AVBL  
CARLSBAD FAIR 103 52 18 S8G22 29.87F HX 100  
DRYDEN N/A 98 64 32 E9G23 29.90F HX 100  
FORT STOCKTON FAIR 98 56 24 SE16G24 29.93F  
GUAD PASS FAIR 93 50 23 SW17G26 30.10F  
HOBBS SUNNY 100 52 19 S12G22 29.94F  
LAMESA NOT AVBL  
MARFA FAIR 90 53 28 S14 30.10F  
MIDLAND AIRPK FAIR 98 60 28 S15G21 29.93S  
MIDLAND INTL FAIR 100 62 28 S16G24 29.92F HX 101  
ODESSA FAIR 98 56 24 S15 29.94F  
PECOS FAIR 101 53 20 CALM 29.87F  
PRESIDIO FAIR 97 55 24 E6G24 29.95F  
SEMINOLE FAIR 100 53 21 S13 29.97F  
SNYDER FAIR 98 65 34 S12G23 29.92F HX 100  
WINK FAIR 102 50 17 S9G16 29.88F  

   
..OTHER STATIONS IN TEXAS
 
 
 
CITY SKY/WX TMP DP RH WIND PRES REMARKS
 
ABILENE FAIR 98 70 40 S14 29.92F HX 105  
AMARILLO FAIR 99 56 23 S18G30 29.88F  
AUSTIN FAIR 97 71 42 S17G23 29.94F HX 104  
BROWNSVILLE FAIR 96 74 48 SE21G29 29.94F HX 107  
CORPUS CHRISTI FAIR 93 74 53 SE18G28 29.95F HX 103  
DALLAS FTW FAIR 96 68 39 S16G24 29.90F HX 101  
DEL RIO FAIR 100 67 33 SE15G24 29.87F HX 105  
EL PASO FAIR 97 53 22 VRB5 29.96F  
HOUSTON INT FAIR 94 72 48 S12 29.97F HX 102  
LUBBOCK FAIR 99 57 24 S18G28 29.91F  
SAN ANGELO FAIR 98 66 34 S15G21 29.92F HX 101  
SAN ANTONIO FAIR 97 66 36 S17G23 29.94F HX 100  
WACO FAIR 97 69 40 S17 29.94F HX 103  
WICHITA FALLS FAIR 100 68 35 S23G33 29.77F HX 105  

   
..OTHER LOCATIONS IN NEW MEXICO
 
 
 
CITY SKY/WX TMP DP RH WIND PRES REMARKS
 
ALAMOGORDO FAIR 95 54 24 S7 29.98  
ALBUQUERQUE FAIR 97 32 10 N10G24 30.05F  
CANNON AFB FAIR 98 44 15 SW9 29.95F  
CLOVIS FAIR 102 51 18 S8G26 29.94F  
HOLLOMAN AFB PTSUNNY 97 55 24 E7 29.97F  
ROSWELL FAIR 104 42 12 CALM 29.89F  
RUIDOSO FAIR 86 39 19 SE10 30.21  
SANTA FE FAIR 94 34 12 N12 30.12F  
TRUTH OR CONSE FAIR 100 41 13 E9 30.01F  
TUCUMCARI FAIR 101 48 16 E3 29.87F  

 
 
 
CLICK HERE TO GO TO PREVIOUS BULLETINS.

The Nexlab TX Page
The Nexlab NM Page Main Text Page